TimeEDT,TemperatureF,Dew PointF,Humidity,Sea Level PressureIn,VisibilityMPH,Wind Direction,Wind SpeedMPH,Gust SpeedMPH,PrecipitationIn,Events,Conditions,WindDirDegrees,DateUTC
12:56 AM,48.0,42.1,80,29.96,7.0,East,10.4,-,N/A,,Clear,90,2013-04-10 04:56:00
1:56 AM,48.0,42.1,80,29.91,7.0,East,11.5,-,N/A,,Clear,90,2013-04-10 05:56:00
2:56 AM,48.9,42.1,77,29.88,7.0,East,11.5,-,N/A,,Mostly Cloudy,90,2013-04-10 06:56:00
3:56 AM,50.0,43.0,77,29.95,6.0,North,18.4,27.6,0.00,Rain,Rain,10,2013-04-10 07:56:00
4:56 AM,48.0,44.1,86,29.86,8.0,ENE,9.2,-,0.06,,Overcast,70,2013-04-10 08:56:00
5:56 AM,46.9,44.1,90,29.88,9.0,NE,4.6,-,N/A,,Clear,50,2013-04-10 09:56:00
6:56 AM,46.9,44.1,90,29.91,7.0,North,3.5,-,N/A,,Partly Cloudy,360,2013-04-10 10:56:00
7:56 AM,48.9,44.1,83,29.94,8.0,NNE,4.6,-,N/A,,Mostly Cloudy,30,2013-04-10 11:56:00
8:56 AM,51.1,45.0,80,29.94,8.0,NNE,4.6,-,N/A,,Mostly Cloudy,30,2013-04-10 12:56:00
9:39 AM,53.6,44.6,72,29.94,8.0,Calm,Calm,-,N/A,,Scattered Clouds,0,2013-04-10 13:39:00
9:56 AM,55.0,46.0,72,29.95,9.0,NNW,6.9,-,N/A,,Scattered Clouds,340,2013-04-10 13:56:00
10:56 AM,57.9,46.9,67,29.94,8.0,NNE,6.9,-,N/A,,Clear,20,2013-04-10 14:56:00
11:56 AM,62.1,48.0,60,29.94,8.0,NW,11.5,-,N/A,,Clear,320,2013-04-10 15:56:00
12:56 PM,53.1,45.0,74,29.95,7.0,SSW,9.2,-,N/A,,Mostly Cloudy,210,2013-04-10 16:56:00
1:56 PM,53.1,45.0,74,29.94,7.0,SSW,6.9,-,N/A,,Overcast,210,2013-04-10 17:56:00
2:56 PM,55.0,46.0,72,29.93,8.0,South,6.9,-,N/A,,Scattered Clouds,180,2013-04-10 18:56:00
3:56 PM,54.0,46.0,75,29.91,8.0,SSE,8.1,-,N/A,,Mostly Cloudy,150,2013-04-10 19:56:00
4:56 PM,52.0,45.0,77,29.91,7.0,South,9.2,-,N/A,,Clear,180,2013-04-10 20:56:00
5:56 PM,52.0,44.1,74,29.90,8.0,SE,6.9,-,N/A,,Clear,130,2013-04-10 21:56:00
6:56 PM,46.9,43.0,86,29.91,7.0,ESE,9.2,-,N/A,,Clear,120,2013-04-10 22:56:00
7:56 PM,46.0,43.0,89,29.87,7.0,East,5.8,-,N/A,,Clear,100,2013-04-10 23:56:00
8:05 PM,46.4,42.8,87,29.88,7.0,ESE,5.8,-,N/A,,Scattered Clouds,120,2013-04-11 00:05:00
8:14 PM,46.4,42.8,87,29.89,7.0,ESE,4.6,-,N/A,,Mostly Cloudy,110,2013-04-11 00:14:00
8:52 PM,46.4,44.6,93,29.92,4.0,SE,6.9,-,0.03,Rain,Light Rain,130,2013-04-11 00:52:00
8:56 PM,46.9,45.0,93,29.92,4.0,SE,6.9,-,0.04,Rain,Rain,130,2013-04-11 00:56:00
9:37 PM,46.4,44.6,93,29.87,6.0,ENE,10.4,-,0.01,Rain,Light Rain,70,2013-04-11 01:37:00
9:56 PM,45.0,44.1,97,29.87,6.0,East,9.2,-,0.01,,Overcast,100,2013-04-11 01:56:00
10:56 PM,44.1,43.0,96,29.88,8.0,NE,6.9,-,N/A,,Overcast,50,2013-04-11 02:56:00
11:38 PM,44.6,42.8,93,29.90,5.0,Calm,Calm,-,0.02,Rain,Light Rain,0,2013-04-11 03:38:00
11:47 PM,44.6,42.8,93,29.89,6.0,South,3.5,-,0.02,Rain,Light Rain,170,2013-04-11 03:47:00
11:56 PM,45.0,43.0,93,29.87,7.0,SE,6.9,-,0.02,Rain,Light Rain,140,2013-04-11 03:56:00